Grant County, OR

10:54 PM PST on December 06, 2019 (GMT -0800)
Grant County Regional

Weather History for KGCD - May, 2019

Change the Weather History Date:

Saturday, May 25, 2019

  Actual Average (KBNO) Record (KBNO)
Temperature  
Mean Temperature 52 °F 54 °F  
Max Temperature 64 °F 69 °F 90 °F (1992)
Min Temperature 42 °F 39 °F 23 °F (1975)
Degree Days  
Heating Degree Days 13 12  
Month to date heating degree days 364  
Since 1 July heating degree days 7404  
Cooling Degree Days 0 0  
Month to date cooling degree days 0  
Year to date cooling degree days 0  
Growing Degree Days 2 (Base 50)    
Moisture  
Dew Point 41 °F    
Average Humidity 72    
Maximum Humidity 93    
Minimum Humidity 45    
Precipitation  
Precipitation 0.07 in 0.04 in 0.49 in (2011)
Month to date precipitation 0.97  
Year to date precipitation 5.20  
Sea Level Pressure  
Sea Level Pressure 29.84 in    
Wind  
Wind Speed 5 mph (WNW)    
Max Wind Speed 12 mph    
Max Gust Speed 17 mph    
Visibility 10 miles    
Events Rain , Thunderstorm    
T = Trace of Precipitation, MM = Missing Value Source: NWS Daily Summary

Daily Weather History Graph

Daily Weather History Graph

Search for Another Location

Airport or City:

Astronomy

May. 25, 2019 Rise Set
Actual Time 5:19 AM PDT 8:26 PM PDT
Civil Twilight 4:44 AM PDT 9:01 PM PDT
Nautical Twilight 3:59 AM PDT 9:47 PM PDT
Astronomical Twilight 3:05 AM PDT 10:41 PM PDT
Moon 1:27 AM PDT (5/25) 11:26 AM PDT (5/25)
Length of Visible Light 16h 17m
Length of Day
15h 07m
Waning Gibbous, 58% of the Moon is Illuminated
May 25
Waning Gibbous
May 26
Last Quarter
Jun 3
New
Jun 9
First Quarter
Jun 17
Full

Hourly Weather History & Observations

Time (PDT) Temp. Windchill Dew Point Humidity Pressure Visibility Wind Dir Wind Speed Gust Speed Precip Events Conditions
12:15 AM 45.5 °F 40.8 °F 43.0 °F 91% 29.92 in 10.0 mi East 9.2 mph - N/A   Overcast
12:35 AM 45.5 °F 44.2 °F 42.8 °F 90% 29.92 in 10.0 mi East 3.5 mph - N/A   Overcast
12:55 AM 44.8 °F - 42.8 °F 93% 29.92 in 10.0 mi Calm Calm - N/A   Overcast
1:15 AM 45.5 °F - 43.2 °F 92% 29.93 in 10.0 mi Calm Calm - N/A   Overcast
1:35 AM 45.5 °F 44.2 °F 43.0 °F 91% 29.93 in 10.0 mi West 3.5 mph - N/A   Overcast
1:55 AM 45.5 °F 43.2 °F 40.1 °F 81% 29.94 in 10.0 mi West 4.6 mph - N/A   Overcast
2:15 AM 45.0 °F 40.6 °F 38.8 °F 79% 29.93 in 10.0 mi West 8.1 mph - N/A   Overcast
2:35 AM 44.4 °F 40.5 °F 38.5 °F 80% 29.93 in 10.0 mi West 6.9 mph - N/A   Overcast
2:55 AM 44.1 °F 39.0 °F 38.1 °F 80% 29.93 in 10.0 mi West 9.2 mph - N/A   Overcast
3:15 AM 43.3 °F 38.6 °F 37.4 °F 80% 29.93 in 10.0 mi West 8.1 mph - N/A   Overcast
3:35 AM 43.2 °F 40.5 °F 37.6 °F 81% 29.93 in 10.0 mi West 4.6 mph - N/A   Mostly Cloudy
3:55 AM 43.5 °F 40.9 °F 38.1 °F 81% 29.93 in 10.0 mi WSW 4.6 mph - N/A   Overcast
4:15 AM 43.2 °F 39.7 °F 37.8 °F 81% 29.93 in 10.0 mi West 5.8 mph - N/A   Overcast
4:35 AM 42.8 °F 38.0 °F 36.5 °F 78% 29.93 in 10.0 mi West 8.1 mph - N/A   Overcast
4:55 AM 42.3 °F 38.6 °F 36.5 °F 80% 29.93 in 10.0 mi West 5.8 mph - N/A   Overcast
5:15 AM 42.3 °F 37.9 °F 36.3 °F 79% 29.93 in 10.0 mi WSW 6.9 mph - N/A   Overcast
5:35 AM 42.1 °F 38.4 °F 36.5 °F 81% 29.93 in 10.0 mi West 5.8 mph - N/A   Overcast
5:55 AM 42.1 °F 37.7 °F 36.7 °F 81% 29.93 in 10.0 mi WSW 6.9 mph - N/A   Overcast
6:15 AM 42.1 °F 38.4 °F 36.7 °F 81% 29.93 in 10.0 mi WSW 5.8 mph - N/A   Overcast
6:35 AM 42.8 °F 38.6 °F 37.0 °F 80% 29.93 in 10.0 mi WSW 6.9 mph - N/A   Overcast
6:55 AM 42.8 °F 37.5 °F 37.0 °F 80% 29.93 in 10.0 mi West 9.2 mph - N/A   Overcast
7:15 AM 43.0 °F 38.2 °F 37.2 °F 80% 29.94 in 10.0 mi West 8.1 mph - N/A   Overcast
7:35 AM 43.0 °F 38.2 °F 37.0 °F 80% 29.94 in 10.0 mi West 8.1 mph - N/A   Overcast
7:55 AM 42.8 °F 38.0 °F 36.7 °F 79% 29.95 in 10.0 mi West 8.1 mph - N/A   Overcast
8:15 AM 43.7 °F 41.1 °F 37.6 °F 79% 29.95 in 10.0 mi West 4.6 mph - N/A   Overcast
8:35 AM 44.2 °F 41.0 °F 37.4 °F 77% 29.95 in 10.0 mi West 5.8 mph - N/A   Overcast
8:55 AM 44.2 °F 41.8 °F 37.8 °F 78% 29.95 in 10.0 mi WSW 4.6 mph - N/A   Overcast
9:15 AM 45.0 °F 42.6 °F 37.9 °F 76% 29.94 in 10.0 mi West 4.6 mph - N/A   Overcast
9:35 AM 45.3 °F - 39.0 °F 79% 29.93 in 7.0 mi Calm Calm - N/A Rain Light Rain
9:55 AM 46.8 °F - 39.4 °F 75% 29.92 in 10.0 mi NW 3.5 mph - N/A   Mostly Cloudy
10:15 AM 49.3 °F - 41.2 °F 74% 29.91 in 10.0 mi Calm Calm - N/A   Scattered Clouds
10:35 AM 51.1 °F - 41.5 °F 70% 29.91 in 10.0 mi East 3.5 mph - N/A   Clear
10:55 AM 52.0 °F - 42.1 °F 69% 29.90 in 10.0 mi NE 5.8 mph - N/A   Scattered Clouds
11:15 AM 54.0 °F - 42.8 °F 66% 29.88 in 10.0 mi East 5.8 mph - N/A   Clear
11:35 AM 55.0 °F - 42.8 °F 63% 29.87 in 10.0 mi NE 6.9 mph - N/A   Clear
11:55 AM 56.8 °F - 43.5 °F 61% 29.86 in 10.0 mi East 6.9 mph - N/A   Clear
12:15 PM 58.1 °F - 42.8 °F 57% 29.85 in 10.0 mi East 9.2 mph - N/A   Clear
12:35 PM 57.0 °F - 42.3 °F 58% 29.85 in 10.0 mi East 5.8 mph - N/A   Mostly Cloudy
12:55 PM 56.8 °F - 42.4 °F 59% 29.84 in 10.0 mi East 10.4 mph - N/A   Overcast
1:15 PM 57.9 °F - 43.0 °F 58% 29.83 in 10.0 mi NE 4.6 mph - N/A   Mostly Cloudy
1:35 PM 58.3 °F - 42.6 °F 56% 29.82 in 10.0 mi East 5.8 mph - N/A   Mostly Cloudy
1:55 PM 59.5 °F - 42.8 °F 54% 29.81 in 10.0 mi East 11.5 mph - N/A   Overcast
2:15 PM 62.1 °F - 40.5 °F 45% 29.80 in 10.0 mi ESE 6.9 mph - N/A   Mostly Cloudy
2:35 PM 61.9 °F - 41.0 °F 46% 29.79 in 10.0 mi East 6.9 mph - N/A   Scattered Clouds
2:55 PM 61.2 °F - 40.8 °F 47% 29.78 in 10.0 mi East 8.1 mph - N/A   Scattered Clouds
3:15 PM 60.8 °F - 40.6 °F 47% 29.77 in 10.0 mi ENE 10.4 mph 17.3 mph N/A Thunderstorm Scattered Clouds
3:35 PM 55.8 °F - 42.3 °F 60% 29.78 in 10.0 mi West 4.6 mph - 0.01 in Rain Light Rain
3:55 PM 55.6 °F - 42.6 °F 62% 29.77 in 7.0 mi Calm Calm - 0.02 in Rain Rain
4:15 PM 54.9 °F - 46.2 °F 73% 29.76 in 10.0 mi North 6.9 mph - 0.01 in   Overcast
4:35 PM 55.4 °F - 45.3 °F 69% 29.75 in 10.0 mi North 6.9 mph - 0.01 in   Mostly Cloudy
4:55 PM 56.5 °F - 43.7 °F 62% 29.74 in 10.0 mi NNE 3.5 mph - 0.01 in   Mostly Cloudy
5:15 PM 57.6 °F - 42.1 °F 56% 29.73 in 10.0 mi Calm Calm - N/A   Scattered Clouds
5:35 PM 57.9 °F - 42.3 °F 56% 29.73 in 10.0 mi Calm Calm - N/A   Mostly Cloudy
5:55 PM 57.7 °F - 42.1 °F 56% 29.72 in 10.0 mi Calm Calm - N/A   Overcast
6:15 PM 58.1 °F - 43.7 °F 59% 29.72 in 10.0 mi WSW 3.5 mph - N/A   Overcast
6:35 PM 56.8 °F - 43.7 °F 61% 29.71 in 10.0 mi Calm Calm - N/A   Mostly Cloudy
6:55 PM 57.0 °F - 45.9 °F 66% 29.71 in 10.0 mi Calm Calm - N/A Thunderstorm Scattered Clouds
7:15 PM 57.6 °F - 43.7 °F 60% 29.70 in 10.0 mi Calm Calm - N/A   Clear
7:35 PM 55.8 °F - 43.9 °F 64% 29.70 in 10.0 mi ENE 3.5 mph - N/A   Clear
7:55 PM 56.3 °F - 44.6 °F 65% 29.71 in 10.0 mi ENE 9.2 mph 16.1 mph N/A   Clear
8:15 PM 55.6 °F - 43.9 °F 65% 29.71 in 10.0 mi East 6.9 mph - N/A Rain Light Rain
8:35 PM 53.1 °F - 45.5 °F 75% 29.72 in 10.0 mi East 6.9 mph - 0.04 in Rain Light Rain
8:55 PM 53.1 °F - 45.9 °F 77% 29.72 in 10.0 mi ESE 3.5 mph - 0.04 in   Light Drizzle
9:15 PM 52.9 °F - 44.6 °F 73% 29.72 in 10.0 mi East 5.8 mph - N/A   Overcast
9:35 PM 52.0 °F - 43.5 °F 73% 29.72 in 10.0 mi East 8.1 mph - N/A   Overcast
9:55 PM 51.4 °F - 43.5 °F 74% 29.73 in 10.0 mi Calm Calm - N/A   Mostly Cloudy
10:15 PM 50.2 °F - 44.4 °F 81% 29.73 in 10.0 mi West 4.6 mph - N/A   Scattered Clouds
10:35 PM 49.3 °F - 45.0 °F 85% 29.74 in 10.0 mi West 4.6 mph - N/A   Scattered Clouds
10:55 PM 49.3 °F - 45.9 °F 88% 29.73 in 10.0 mi West 4.6 mph - N/A   Overcast
11:15 PM 48.4 °F - 45.9 °F 91% 29.74 in 10.0 mi WSW 5.8 mph - N/A   Overcast
11:35 PM 47.7 °F - 45.7 °F 93% 29.74 in 10.0 mi West 4.6 mph - N/A   Mostly Cloudy
11:55 PM 48.0 °F - 45.7 °F 92% 29.74 in 10.0 mi Calm Calm - N/A   Scattered Clouds